Regional Weather Roundup
Issued by NWS Green Bay, WI

Home | Current Version | Previous Version | Text Only | Print | Product List | Glossary On
Versions: 1 2 3 4 5 6 7 8 9 10 11 12 13 14 15 16 17 18 19 20 21 22 23 24 25 26 27 28 29 30 31 32 33 34 35 36 37 38 39 40 41 42 43 44 45 46 47 48 49 50
000
ASUS43 KGRB 280411
RWRGRB

NORTH-CENTRAL AND NORTHEAST WISCONSIN REGIONAL WEATHER ROUNDUP
NATIONAL WEATHER SERVICE GREEN BAY WI
1100 PM CDT SAT MAY 27 2017

WIZ005-009-010>012-018-019-280500-
NORTH CENTRAL WISCONSIN

CITY           SKY/WX    TMP DP  RH WIND       PRES   REMARKS
IRONWOOD       PTCLDY    59  46  62 SW6       29.81F
MANITOWISH WTR CLOUDY    57  50  77 SW6       29.82F
ARBOR VITAE    CLOUDY    62  51  66 W5        29.82F
EAGLE RIVER    CLOUDY    59  46  60 CALM      29.82F
LAND O LAKES   CLOUDY    56  50  80 CALM      29.84F
RHINELANDER    CLOUDY    58  49  72 CALM      29.84F
PHILLIPS       CLOUDY    59  50  73 SW5       29.83F
ANTIGO         CLOUDY    59  51  75 W6        29.84F
TOMAHAWK       PTCLDY    55  49  82 CALM      29.84F
MERRILL        CLOUDY    61  51  70 SW3       29.85S
$$

WIZ013-073-280500-
NORTHEAST WISCONSIN

CITY           SKY/WX    TMP DP  RH WIND       PRES   REMARKS
IRON MOUNTAIN  PTCLDY    61  49  64 CALM      29.80F
MARINETTE      NOT AVBL
OCONTO         CLOUDY    58  55  89 CALM      29.81R
$$

WIZ017-030-035>037-045-280500-
CENTRAL WISCONSIN

CITY           SKY/WX    TMP DP  RH WIND       PRES   REMARKS
MEDFORD        CLOUDY    58  49  71 CALM      29.85S
WAUSAU         LGT RAIN  61  53  75 SW5       29.83F
MOSINEE        CLOUDY    59  52  77 W5        29.86F
MARSHFIELD     CLOUDY    58  52  80 W5        29.84F
WISC RAPIDS    CLOUDY    59  55  87 N3        29.86F
STEVENS POINT  CLOUDY    58  54  85 CALM      29.85F
WAUPACA        CLOUDY    67  51  56 W5        29.84R
SHAWANO        CLOUDY    66  51  57 W3        29.83S
CLINTONVILLE   CLOUDY    64  50  59 CALM      29.83S
WAUTOMA        CLOUDY    65  52  62 NW9       29.85
$$

WIZ038-039-048-051-280500-
FOX VALLEY

CITY           SKY/WX    TMP DP  RH WIND       PRES   REMARKS
NWS GREEN BAY  CLOUDY    64  60  87 CALM      29.81R
APPLETON       PTCLDY    63  52  67 W7        29.82R
OSHKOSH        CLOUDY    66  57  72 W5        29.82R
FOND DU LAC    CLOUDY    66  54  65 SW3       29.83R
$$

WIZ022-050-052-280500-
EAST CENTRAL WISCONSIN

CITY           SKY/WX    TMP DP  RH WIND       PRES   REMARKS
EPHRAIM        FAIR      57  54  88 CALM      29.81R
WASHINGTON ISL FAIR      53  49  86 S6        29.79S
STURGEON BAY   PTCLDY    59  53  80 SW6       29.82R
MANITOWOC      MOCLDY    61  53  75 SW5       29.83S
SHEBOYGAN      CLOUDY    59  56  89 SW6       29.83S
$$

LMZ563-521-522-541>543-280500-
LAKESHORE

STATION/POSITION TIME  TEMP    WIND        PRES    VSBY  WAVE
                       AIR SEA DIR/SP/G                  HT/PER
                 (UTC) (F)     (DEG/KT/KT) (MB)    (MI)  (FT/S)
SHEBOYGAN LKSHOR 0400   62     210/  6/  7 1010.0R
KEWAUNEE LKSHORE 0348   54     150/  3/  5 1009.5S
NORTHPORT PIER   0340   60     160/  4/  8 1008.8F
N MID LAKE BUOY  0350   46 42  160/  8/ 10 1010.3F         1
CHAMBERS ISLAND  0340   60     190/  5/  7 1008.8S
MENOMINEE LKSHOR 0348          190/  5/  7 1008.5R
$$




USA.gov is the U.S. government's official web portal to all federal, state and local government web resources and services.